Location: Oberwangen
(47.4286°N, 8.9679°E)
Time: 09:19:56
(UTC+00:00)

Cosmos 1892 Rocket - Pass Details

Date: 20 June 2021
Orbit: 605 x 634 km, 82.5° (Epoch: 04 August)

Event Time Altitude Azimuth Distance (km) Brightness Sun altitude
Exits shadow 21:43:57 27° 147° (SSE) 1,200 4.4 -15.5°
Maximum altitude 21:45:53 44° 93° (E) 871 4.1 -15.6°
Drops below altitude 10° 21:50:08 10° 21° (NNE) 2,019 6.8 -15.9°
Sets 21:52:27 0° 15° (NNE) 2,936 7.9 -16.1°
